Simultaneous Nadir Overpasses (SNOs) Predictions

Prediction of SNOs between GOES-15 and LANDSAT-8 Satellite Orbit:

Table of predicted SNOs for the next 14.0 days since TLE Epoch: 6/22/2019
Index Date Time (GOES-15) GOES-15 Lat,Lon LANDSAT-8 Lat,Lon Distance(km) Time Diff (sec)
1 06/22/2019 18:42:39 -0.12,-128.14 -0.17,-127.98 19.05 80
2 06/24/2019 18:30:28 -0.13,-128.09 -0.78,-125.02 349.21 80
3 06/25/2019 06:54:31 0.10,-128.03 -0.35,-130.21 247.31 80
4 06/27/2019 06:39:41 0.11,-127.97 0.27,-127.25 82.39 80
5 06/29/2019 06:27:30 0.11,-127.90 0.88,-124.28 411.54 80
6 06/29/2019 18:51:25 -0.09,-127.93 0.20,-129.44 171.29 80
7 07/01/2019 18:36:34 -0.10,-127.86 -0.41,-126.48 156.92 80
8 07/02/2019 07:00:37 0.07,-127.80 -0.77,-131.66 439.45 80
9 07/03/2019 18:24:24 -0.11,-127.78 -1.03,-123.52 484.21 80
10 07/04/2019 06:48:26 0.08,-127.71 -0.15,-128.70 112.39 80




NCC Satellite Simultaneous Nadir Overpasses (SNOs) Prediction Service
